Flag for Mongolia Weather past 2 weeks in Ulaanbaatar, Mongolia

Now
63 °F

Partly sunny.


Feels Like: 63 °F
Forecast: 54 / 89 °F
Wind: 13 mph from Southeast

Location: Ulan-Bator

Current Time: Jul 24, 2014 at 8:30:22 AM

Latest Report: Jul 24, 2014 at 8:00 AM


Visibility: N/A

Pressure: 29.80 "Hg

Humidity: 59%

Dew point: 48 °F

Location of UlaanbaatarLocation

Historic Weather in Ulaanbaatar — Graph

°F

Ulaanbaatar temperature yesterday

Maximum temperature yesterday: 79 °F (at 5:30 PM)
Minimum temperature yesterday: 52 °F (at 12:30 AM)
Average temperature yesterday: 64 °F

Past Weeks' High & Low Weather Summary

 TemperatureHumidityPressure
High86 °F (Jul 17, 4:00 PM)100% (Jul 10, 6:00 AM)30.09 "Hg (Jul 10, 6:00 AM)
Low43 °F (Jul 10, 4:30 AM)23% (Jul 23, 6:00 PM)29.62 "Hg (Jul 17, 3:30 PM)
Average62 °F67%29.88 "Hg
* Reported Jul 9 7:00 AM — Jul 24 7:30 AM, Ulaanbaatar, Weather by CustomWeather, © 2014

Note: Actual official high and low records may vary slightly from our data, if they occured in-between our weather recording intervals... More about our weather records

Advertising

Ulaanbaatar weather history for previous 24 hours

 ConditionsComfort  
Time TempWeatherWind HumidityBarometerVisibility
7:30 AM
Jul 24
61 °FPartly sunny.13 mph77%29.83 "HgN/A
7:00 AM61 °FPartly sunny.3 mph77%29.86 "HgN/A
6:30 AM61 °FPartly sunny.10 mph72%29.83 "HgN/A
6:00 AM61 °FPassing clouds.1 mph72%29.83 "HgN/A
5:30 AM61 °FPassing clouds.1 mph72%29.80 "HgN/A
5:00 AM63 °FPassing clouds.8 mph68%29.80 "HgN/A
4:30 AM63 °FPassing clouds.13 mph64%29.80 "HgN/A
4:00 AM63 °FPassing clouds.10 mph68%29.80 "HgN/A
3:00 AM61 °FPassing clouds.3 mph77%29.86 "HgN/A
2:30 AM59 °FSprinkles. Passing clouds.1 mph77%29.89 "HgN/A
2:00 AM59 °FPassing clouds.1 mph77%29.89 "HgN/A
1:30 AM59 °FPassing clouds.6 mph77%29.86 "HgN/A
1:00 AM57 °FPassing clouds.3 mph82%29.86 "HgN/A
12:30 AM55 °FPassing clouds.1 mph88%29.86 "HgN/A
12:00 AM57 °FPassing clouds.1 mph82%29.86 "HgN/A
11:30 PM
Jul 23
59 °FPassing clouds.1 mph77%29.86 "HgN/A
11:00 PM61 °FPassing clouds.No wind68%29.83 "HgN/A
10:30 PM61 °FPassing clouds.1 mph68%29.86 "HgN/A
10:00 PM64 °FPassing clouds.1 mph52%29.86 "HgN/A
9:30 PM63 °FScattered clouds.1 mph59%29.86 "HgN/A
6:00 PM79 °FPassing clouds.1 mph23%29.83 "HgN/A
5:30 PM79 °FPassing clouds.1 mph26%29.83 "HgN/A
1:30 PM75 °FPassing clouds.1 mph34%29.89 "HgN/A
1:00 PM75 °FPassing clouds.1 mph34%29.92 "HgN/A
12:30 PM73 °FPassing clouds.1 mph38%29.92 "HgN/A
12:00 PM72 °FPassing clouds.1 mph41%29.92 "HgN/A
11:30 AM70 °FPassing clouds.1 mph57%29.95 "HgN/A
11:00 AM66 °FPassing clouds.1 mph56%29.95 "HgN/A
10:30 AM64 °FPassing clouds.3 mph68%29.95 "HgN/A
10:00 AM63 °FSunny.1 mph59%29.95 "Hg10 mi
9:30 AM61 °FSunny.1 mph63%29.95 "Hg10 mi
9:00 AM57 °FSunny.3 mph67%29.98 "Hg10 mi
8:30 AM55 °FSunny.1 mph72%29.98 "Hg10 mi
8:00 AM55 °FSunny.No wind72%29.95 "Hg10 mi
Weather by CustomWeather, © 2014

See weather overviewHow to use our weather pages